Terminal Aerodrome Forecast
Issued by NWS Wilmington, OH

Home | Current Version | Previous Version | Text Only | Print | Product List | Glossary On
Versions: 1 2 3 4 5 6 7 8 9 10 11 12 13 14 15 16 17
000
FTUS41 KILN 100232 AAA
TAFCMH
TAF AMD
KCMH 100232Z 1003/1024 28008KT P6SM -SHSN OVC040
      TEMPO 1003/1006 4SM -SHSN OVC025
     FM101400 25008KT P6SM BKN080=

USA.gov is the U.S. government's official web portal to all federal, state and local government web resources and services.